Regional Weather Roundup
Issued by NWS

Home | Current Version | Previous Version | Graphics & Text | Print | Product List | Glossary Off
Versions: 1 2 3 4 5 6 7 8 9 10 11 12 13 14 15 16 17 18 19 20 21 22 23 24 25 26 27 28 29 30 31 32 33 34 35 36 37 38 39 40 41 42 43 44 45 46 47 48 49 50

000
ASUS43 KMKX 240120
RWRWI

WISCONSIN REGIONAL WEATHER ROUNDUP
NATIONAL WEATHER SERVICE MILWAUKEE/SULLIVAN WI
700 PM CST FRI FEB 23 2018

NOTE: "FAIR" INDICATES FEW OR NO CLOUDS BELOW 12,000 FEET WITH NO
SIGNIFICANT WEATHER AND/OR OBSTRUCTIONS TO VISIBILITY.

WIZ001-002-006>008-014>016-023>028-240200-
NORTHWEST WISCONSIN

CITY           SKY/WX    TMP DP  RH WIND       PRES   REMARKS
SUPERIOR ARPT  CLOUDY    32  23  70 SW5       30.20R WCI  27
ASHLAND        CLOUDY    30  22  72 SW8       30.19R WCI  22
HAYWARD        FAIR      21  19  92 SW6       30.20R WCI  13
SIREN          FAIR      27  20  75 SW6       30.23R WCI  20
CUMBERLAND     FAIR      25  19  80 W6        30.22R WCI  18
RICE LAKE      FAIR      25  20  83 SW3       30.25R
CHETEK         FAIR      23  19  84 SW3       30.24R
LADYSMITH      CLOUDY    28  21  77 SW6       30.23R WCI  21
EAU CLAIRE     FAIR      23  20  88 SW7       30.26R FOG     WCI  15
MENOMONIE      FAIR      26  20  80 SW8       30.27R WCI  17
NEW RICHMOND   FAIR      22  16  78 SW7       30.26R WCI  13
OSCEOLA        FAIR      25  19  78 SW7       30.28R WCI  17
$$

WIZ003>005-009-010-017-018-240200-
NORTH CENTRAL WISCONSIN

CITY           SKY/WX    TMP DP  RH WIND       PRES   REMARKS
MANITOWISH WTR CLOUDY    27  24  87 W7        30.16R WCI  20
ARBOR VITAE    CLOUDY    29  25  84 W6        30.15R WCI  23
WOODRUFF       CLOUDY    29  25  84 W6        30.15R WCI  23
RHINELANDER    CLOUDY    28  23  81 W10       30.16R WCI  19
EAGLE RIVER    CLOUDY    28  22  80 W7        30.15R WCI  20
LAND O LAKES   CLOUDY    28  23  82 W5        30.15R WCI  23
PHILLIPS       CLOUDY    27  22  80 SW3       30.18R
TOMAHAWK       CLOUDY    27  23  84 W5        30.19R WCI  22
MEDFORD        CLOUDY    26  21  83 W7        30.20R WCI  18
MERRILL        CLOUDY    28  23  80 W8        30.20R WCI  20
$$

WIZ029-030-035-036-043>047-240200-
CENTRAL WISCONSIN

CITY           SKY/WX    TMP DP  RH WIND       PRES   REMARKS
WAUSAU         CLOUDY    28  22  78 W10       30.19R WCI  19
MOSINEE        CLOUDY    28  23  80 W8        30.22R WCI  20
MARSHFIELD     CLOUDY    27  21  78 W10       30.21R WCI  17
STEVENS POINT  CLOUDY    28  21  76 W10G17    30.23R WCI  18
WAUPACA        CLOUDY    33  24  68 W9G17     30.23R WCI  26
WAUTOMA        CLOUDY    31  24  75 W13       30.24R WCI  21
WISC RAPIDS    CLOUDY    30  21  69 NW7       30.24R WCI  23
CAMP DOUGLAS   CLOUDY    28  23  80 W10       30.25R WCI  19
$$

WIZ011>013-019>022-031-037>040-048>050-240200-
NORTHEAST WISCONSIN

CITY           SKY/WX    TMP DP  RH WIND       PRES   REMARKS
ANTIGO         CLOUDY    28  23  82 W9        30.18R WCI  19
SHAWANO        CLOUDY    34  25  69 W7        30.20R WCI  28
OCONTO         CLOUDY    33  27  77 W6        30.19R WCI  27
STURGEON BAY   CLOUDY    33  28  81 W9        30.19R WCI  25
GREEN BAY      CLOUDY    33  24  69 W12       30.21R WCI  24
MANITOWOC      CLOUDY    34  27  75 NW13      30.22R WCI  25
APPLETON       CLOUDY    32  21  64 W14       30.20R WCI  22
CLINTONVILLE   CLOUDY    32  23  68 W12       30.21R WCI  23
OSHKOSH        CLOUDY    32  26  78 W14       30.22R WCI  22
$$

WIZ032>034-041-042-053>061-240200-
SOUTHWEST WISCONSIN

CITY           SKY/WX    TMP DP  RH WIND       PRES   REMARKS
LA CROSSE      CLOUDY    28  21  75 W9        30.29R WCI  19
SPARTA         CLOUDY    28  23  81 W6        30.28R WCI  22
VIROQUA        FAIR      28  25  90 NW9       30.24R WCI  19
BOSCOBEL       FAIR      31  23  72 W3        30.28R
PRAIRIE DU CHI FAIR      30  23  74 W9        30.29R WCI  22
PLATTEVILLE    FAIR      31  28  85 W8        30.25S WCI  24
$$

WIZ056-057-062-063-064-067-068-240200-
SOUTH CENTRAL WISCONSIN

CITY           SKY/WX    TMP DP  RH WIND       PRES   REMARKS
REEDSBURG      FAIR      30  24  78 W3        30.24R
BARABOO/DELLS  FAIR      30  24  78 CALM      30.23R
LONE ROCK      FAIR      33  25  72 W7        30.26R WCI  27
MINERAL POINT  FAIR      32  32 100 W6        30.24R WCI  26
MADISON        MOCLDY    33  26  75 W5        30.24R WCI  29
MIDDLETON      FAIR      34  28  78 W7        30.24R WCI  28
WATERTOWN      CLOUDY    33  31  90 W5        30.23R WCI  29
MONROE         FAIR      32  28  86 W9        30.23S WCI  24
JANESVILLE     CLOUDY    34  32  93 W6        30.24R WCI  29
$$

WIZ051-052-058>065-066-070>072-240200-
SOUTHEAST WISCONSIN

CITY           SKY/WX    TMP DP  RH WIND       PRES   REMARKS
MILWAUKEE      MOCLDY    38  30  73 W8        30.23R WCI  32
WAUKESHA       CLOUDY    34  28  80 W6        30.23R WCI  29
MILWAUKEE/TIMM CLOUDY    36  28  75 CALM      30.23R
RACINE         FAIR      35  30  82 CALM      30.25R
BURLINGTON     FAIR      34  29  83 W5        30.23R WCI  30
KENOSHA        FAIR      34  29  82 W8        30.24R WCI  27
FOND DU LAC    FAIR      32  24  72 NW12      30.22R WCI  23
SHEBOYGAN      CLOUDY    34  28  79 W15G21    30.21R WCI  24
WEST BEND      CLOUDY    34  30  86 W7        30.22R WCI  28
JUNEAU         FAIR      32  28  86 CALM      30.24R
$$

LSZ147-162-240200-
LAKE SUPERIOR

STATION/POSITION TIME  TEMP    WIND        PRES    WAVE
                       AIR SEA DIR/SP/G            HT/PER
                 (UTC) (F)     (DEG/KT/KT) (MB)    (FT/S)
DEVILS ISLAND    0100   31     290/ 16/ 17 1022.6R
SAXON HARBOR     0040   30     200/  3/  5 1021.7R
$$

LMZ867-665-643>646-240200-
LAKE MICHIGAN

STATION/POSITION TIME  TEMP    WIND        PRES    WAVE
                       AIR SEA DIR/SP/G            HT/PER
                 (UTC) (F)     (DEG/KT/KT) (MB)    (FT/S)
NORTHPORT PIER   0040   35                 1021.0R
KEWAUNEE LAKESHO 0100   34     290/ 12/ 18 1021.8
SHEBOYGAN LAKESH 0100   35     290/ 11/ 16 1024.0R
PORT WASHINGTON  0040   37     300/  3/  8 1024.4R
KENOSHA   LAKESH 0100   37     260/  3/  5 1024.0
$$

TC  - TEMPERATURE IN CELSIUS
VSB - VISIBILITY IN STATUTE MILES
WCI - WIND CHILL INDEX
HX  - HEAT INDEX





USA.gov is the U.S. government's official web portal to all federal, state and local government web resources and services.